Vorticity
8 8 9 9 8 7 6 6 5 5 5 5 5 5 6 5 4 3 3 3 4 4 4 3 2 2 1 1 1 2 5 10 15 18 18 16 15 14 11 9 8 8 8 9 9 8 8 7 7 6 5 5 4 4 4 4 4 4 4 4 4 5 5 5 5 5 5 5 5 4 4 4 3 3 2 2 3 3 4 4 5 5 5 5 5 5 5 5 5 5 5 4 4 5 5 5 5 5 5 5 5 5 5
8 9 11 10 9 7 6 6 5 5 5 5 5 5 5 4 4 3 3 3 4 4 3 3 2 1 1 1 1 3 5 11 15 17 17 16 15 13 11 9 8 8 8 8 8 8 7 7 6 5 5 4 4 4 4 4 4 4 4 5 5 5 5 5 5 5 5 5 5 4 4 3 3 3 2 3 3 3 4 5 5 5 5 5 5 5 5 5 5 5 4 4 4 4 4 5 5 5 5 5 5 5 5
8 10 11 11 9 8 7 6 5 5 5 5 5 5 5 4 4 3 3 4 4 4 3 2 2 1 1 1 1 3 6 12 15 17 16 15 14 13 11 9 8 8 8 8 7 7 6 6 6 5 4 4 4 4 4 4 4 4 5 5 5 5 5 5 5 5 5 5 5 4 4 3 3 2 2 3 3 4 4 5 5 5 5 5 5 5 5 5 5 4 4 4 4 5 5 5 5 5 5 5 5 5 5
8 10 11 11 9 8 7 7 6 6 5 5 6 6 6 5 4 3 3 4 4 4 3 2 2 1 1 1 1 3 7 12 15 16 15 14 13 12 11 9 9 8 8 7 7 6 6 5 5 5 4 4 4 4 4 4 4 4 5 5 5 5 5 5 5 5 5 5 5 4 3 3 2 2 2 3 4 4 5 5 5 5 5 5 5 5 5 5 5 4 4 4 5 5 5 5 5 5 5 5 5 5 5
7 9 11 11 10 9 8 7 6 6 5 5 5 6 6 5 4 4 4 4 4 3 3 2 2 2 1 1 2 3 7 12 15 16 14 13 13 12 11 9 9 8 8 7 6 6 6 5 5 5 4 4 4 4 4 4 4 4 5 5 5 5 5 5 6 6 6 6 5 4 3 3 2 2 3 3 4 4 5 5 5 5 5 5 5 5 5 5 5 5 4 4 5 5 5 5 5 5 5 5 5 5 5
6 9 12 12 11 10 10 9 7 6 5 5 5 6 6 5 4 4 4 4 4 3 3 2 2 2 1 1 2 3 7 12 15 15 14 13 12 12 11 9 9 8 8 7 6 6 5 5 5 4 4 4 4 4 4 4 4 5 5 5 5 5 5 6 6 6 6 5 5 4 3 2 2 2 3 4 4 5 5 5 5 5 5 5 5 5 5 5 5 4 4 4 4 4 4 5 5 5 5 5 5 5 5
4 8 12 13 12 11 11 9 7 6 5 5 5 6 6 5 4 4 4 4 4 3 3 2 2 2 1 1 2 3 7 12 15 15 13 12 11 11 11 9 9 8 7 6 6 5 5 5 5 4 4 4 4 4 4 4 4 5 5 5 5 5 5 6 6 6 6 5 4 4 3 2 2 2 3 4 4 5 5 5 5 5 5 5 5 5 5 5 5 5 5 5 5 5 5 5 5 5 5 5 4 5 5
1 6 10 11 11 11 10 9 7 6 5 5 6 6 6 5 4 4 4 4 4 3 3 2 2 2 2 1 2 3 6 12 15 15 13 12 11 11 10 9 9 8 7 6 6 5 5 5 5 4 4 4 4 4 4 4 4 5 5 5 5 5 6 6 6 6 5 5 4 3 3 2 2 3 3 4 5 5 5 5 5 5 5 5 5 5 5 5 5 5 5 4 4 4 4 4 4 4 4 4 4 4 4
0 2 8 10 10 9 8 7 6 5 5 5 6 6 6 5 4 4 4 4 4 3 3 3 2 2 2 1 2 3 6 12 15 15 13 11 11 10 10 9 8 8 7 6 6 5 5 5 4 4 4 4 4 4 4 4 4 4 5 5 5 5 6 6 6 6 5 5 4 3 2 2 2 3 4 4 5 5 5 5 5 5 5 5 5 5 5 5 5 5 4 4 4 4 4 4 4 4 4 4 4 4 4
1 -0 5 9 9 9 7 6 5 5 5 5 6 6 5 5 4 4 4 4 3 3 3 3 2 2 2 1 1 2 5 11 15 15 13 11 11 10 10 9 8 8 7 6 5 5 5 5 4 4 4 4 4 4 4 4 5 5 5 5 5 6 6 6 6 6 5 4 3 3 2 2 3 3 4 5 5 5 5 5 5 5 5 5 5 4 4 5 4 4 4 4 4 4 4 4 4 4 4 4 4 4 4
3 0 2 7 9 9 7 6 5 5 5 5 5 5 5 5 4 4 3 3 3 3 3 3 2 2 2 1 1 2 4 10 14 16 14 12 11 10 10 9 8 8 7 6 5 5 5 5 4 4 4 4 4 4 4 4 5 5 5 5 5 6 6 6 6 6 5 4 3 3 2 3 3 4 4 5 5 5 5 5 5 5 5 5 4 4 4 4 4 4 4 4 4 4 4 4 4 4 4 4 4 4 4
4 2 -1 5 8 10 8 6 5 4 4 5 5 5 5 5 4 4 3 3 3 3 3 3 3 2 2 1 1 2 3 9 14 16 14 12 11 10 10 9 8 8 7 6 5 5 5 4 4 4 4 4 4 4 4 4 5 5 5 5 6 6 6 6 6 5 5 4 3 2 2 3 4 4 5 5 5 5 5 5 5 5 5 4 4 4 4 4 4 4 4 5 5 4 4 4 4 4 4 4 4 4 4
3 2 -1 2 6 9 9 7 5 4 4 4 5 5 5 4 4 4 3 3 3 3 3 3 3 2 2 2 1 2 3 8 13 16 15 13 11 10 10 9 8 8 7 6 5 5 5 4 4 4 4 4 4 4 4 4 5 5 5 5 6 6 6 6 6 5 4 3 3 2 2 3 4 5 5 5 5 5 5 5 5 5 4 4 4 4 4 4 4 4 5 5 5 4 4 4 4 4 4 4 4 4 4
1 1 1 1 5 8 9 7 5 4 4 4 4 4 5 4 4 4 3 3 3 3 3 3 3 2 2 2 1 2 2 6 11 15 16 13 11 10 10 9 9 8 7 6 5 5 5 4 4 4 4 4 4 4 4 4 5 6 5 6 6 6 6 6 6 5 4 3 3 3 3 3 4 5 5 5 5 5 5 5 5 4 4 4 4 4 4 4 4 4 5 5 4 4 4 4 4 4 4 4 4 4 4
1 1 3 2 4 6 8 7 6 4 3 4 4 4 5 5 4 4 3 3 3 3 3 3 3 3 2 2 2 1 1 5 10 14 16 14 12 11 10 9 9 8 7 6 5 5 5 4 4 4 4 4 4 4 4 5 6 6 5 6 6 6 6 6 6 5 4 3 2 3 3 4 4 5 5 5 5 5 5 4 4 4 4 4 4 4 4 4 4 5 5 5 4 4 4 4 4 4 4 4 4 4 4
5 3 3 3 4 5 7 7 6 5 4 4 4 4 5 5 4 4 3 3 3 3 3 3 3 3 2 2 2 1 1 3 8 13 16 14 12 11 10 10 9 8 7 6 6 5 5 4 4 4 4 3 4 4 4 5 6 6 5 6 6 6 6 6 6 5 4 3 3 3 3 4 5 5 5 5 5 4 4 4 4 4 4 4 4 4 4 4 4 5 5 5 4 4 4 4 4 4 5 4 4 4 4
5 3 3 4 4 4 5 6 6 6 5 4 4 4 5 5 4 4 3 3 3 3 3 3 3 3 3 2 2 2 1 3 7 12 16 15 13 11 10 10 9 8 7 6 6 5 5 4 4 4 3 3 4 4 4 6 6 6 6 6 6 6 6 6 6 5 4 3 3 3 3 4 5 5 5 5 4 4 4 4 4 4 4 4 4 4 4 4 5 5 5 5 4 4 4 5 5 5 5 5 4 4 4
4 3 4 5 5 4 4 5 6 6 7 6 5 4 5 5 4 4 3 3 3 3 3 3 3 3 3 2 2 2 1 2 6 11 16 15 13 11 10 10 9 8 8 7 6 5 5 4 4 3 3 3 4 4 4 6 6 6 6 7 7 7 6 7 6 5 4 3 3 3 4 4 5 5 4 4 4 4 4 3 3 3 3 4 4 4 4 5 5 5 5 5 5 4 5 5 5 5 5 5 4 4 4
3 4 5 6 6 5 4 4 4 6 7 6 5 4 4 4 4 4 4 3 3 3 3 4 3 3 3 3 2 2 1 2 4 9 15 15 14 12 10 10 9 9 8 7 6 6 5 4 4 3 3 3 4 4 5 6 6 6 7 7 7 7 6 7 6 5 4 3 3 3 4 4 5 5 4 4 4 3 3 3 3 3 3 4 4 4 5 5 5 5 5 5 5 5 5 5 5 5 5 5 4 4 4
4 4 6 7 7 6 4 3 3 4 6 6 5 4 4 4 4 4 4 3 3 3 3 4 3 3 3 3 2 2 1 1 3 8 14 15 14 12 10 10 9 9 8 7 6 6 5 4 4 3 3 3 4 4 5 6 6 6 7 7 7 7 6 6 5 4 3 3 3 3 4 5 5 4 4 4 3 3 2 3 3 3 3 4 4 4 5 5 5 5 5 5 5 5 5 5 5 5 5 5 5 4 4
4 4 6 7 7 6 4 2 2 3 4 6 6 5 4 5 5 4 4 4 3 3 3 4 4 3 3 3 2 2 1 1 2 6 12 15 14 13 11 10 9 9 8 7 7 6 5 5 4 3 3 3 4 4 5 6 6 7 7 7 7 7 7 6 5 4 3 3 3 3 4 4 4 4 4 4 3 3 2 3 3 3 3 4 4 5 5 5 5 5 5 5 5 5 5 5 5 5 5 5 5 5 5
4 4 4 7 7 6 4 3 2 2 3 5 6 6 6 6 6 5 4 4 4 3 4 4 4 4 3 3 2 1 1 1 2 4 10 14 15 13 11 10 9 9 8 8 7 6 5 5 4 4 3 3 4 5 6 6 7 7 7 7 7 7 7 6 5 4 3 3 3 4 4 4 4 4 4 3 3 2 2 3 3 3 4 4 4 5 5 5 5 5 5 5 5 5 5 5 5 5 5 5 5 5 5
5 5 4 6 6 6 4 4 3 2 2 3 5 6 6 7 7 6 5 4 4 4 4 4 4 4 3 3 2 1 1 1 1 3 7 13 14 14 11 10 9 9 9 8 7 6 6 5 4 4 3 4 4 5 6 7 7 7 8 8 7 7 7 6 5 4 3 3 3 4 4 4 4 3 3 3 2 2 2 3 3 4 4 4 5 5 5 5 5 5 5 5 5 5 5 5 5 5 5 5 5 5 6
5 5 5 5 5 4 3 4 4 4 3 2 3 5 6 7 7 7 6 4 4 4 4 4 4 4 3 3 2 2 2 2 1 2 5 11 13 14 12 11 10 9 9 8 7 7 6 5 4 4 3 4 4 5 7 7 7 7 8 8 7 7 7 6 5 4 3 3 3 4 4 4 3 3 3 2 2 2 3 3 4 4 4 5 5 5 5 5 5 5 5 5 5 5 5 5 5 5 5 6 6 6 6
5 5 6 6 5 3 -0 2 4 5 4 2 2 3 5 6 8 8 7 5 4 4 4 4 4 4 3 3 3 2 2 2 1 1 3 8 12 13 13 11 10 9 9 8 8 7 6 5 5 4 4 4 5 6 7 7 7 7 8 8 8 7 7 6 5 4 3 3 4 4 4 4 3 3 2 2 2 3 3 3 4 4 5 5 5 5 5 5 5 5 5 5 5 5 5 6 6 6 6 6 6 6 7
4 5 7 9 10 8 -2 -3 1 5 5 3 2 3 4 5 8 10 9 6 5 4 4 4 4 4 4 3 3 3 3 2 1 1 1 6 10 12 13 12 11 10 9 9 8 7 7 6 5 4 4 4 5 6 8 8 7 7 8 8 8 7 7 6 5 4 3 3 4 4 4 3 3 2 2 2 2 3 3 4 4 5 5 5 5 5 5 5 5 5 6 6 6 6 6 6 6 6 6 6 7 7 8
3 5 7 12 17 14 -1 -8 -5 1 4 2 1 1 2 4 7 10 11 8 5 4 4 4 4 4 4 4 3 3 3 2 1 1 1 4 7 11 12 12 11 10 9 9 8 8 7 6 5 5 5 5 6 7 8 8 8 7 8 8 8 7 6 6 5 4 3 3 4 4 4 3 2 2 2 2 3 3 3 4 4 5 5 6 6 5 5 5 5 6 6 6 6 6 6 6 6 6 7 7 7 8 8
3 5 6 11 18 18 5 -8 -10 -5 1 2 0 -2 -2 -1 3 8 12 10 7 5 4 4 4 4 4 4 4 3 3 2 2 1 1 3 6 9 12 12 11 10 9 9 9 8 8 7 6 5 5 5 6 7 8 8 8 8 8 8 8 7 6 6 5 4 4 4 4 4 4 3 2 2 2 2 3 3 4 4 5 5 6 6 6 5 5 5 6 6 6 6 6 6 6 6 7 7 7 7 8 8 8
4 5 5 8 14 17 12 -1 -8 -8 -3 2 2 -1 -6 -5 -2 4 10 11 9 6 4 4 4 4 4 4 4 4 3 3 2 1 1 2 5 8 11 11 11 10 10 9 9 8 8 7 7 6 6 6 6 7 8 8 8 8 8 8 8 7 6 5 5 4 4 4 4 4 4 3 2 2 2 3 3 4 4 4 5 5 6 6 6 6 5 5 6 6 6 6 6 6 6 7 7 7 7 7 7 7 6
5 5 5 5 9 13 15 7 1 -2 -1 -2 -3 -5 -8 -7 -4 -1 4 9 10 9 6 4 3 3 4 4 5 5 4 3 3 2 1 2 4 7 9 10 11 10 10 9 8 8 8 8 7 7 6 6 7 7 8 8 8 8 8 8 8 7 6 5 4 4 4 4 4 3 3 2 2 2 2 3 3 4 4 4 5 6 6 6 6 6 5 6 6 6 6 6 6 6 7 7 7 7 7 7 6 6 4
4 5 5 5 6 8 12 12 11 9 9 4 -2 -8 -10 -6 -3 -1 -2 3 7 10 9 6 4 3 4 5 5 5 5 4 3 2 2 2 3 5 8 9 10 10 10 9 8 8 8 8 7 7 7 7 7 7 7 8 8 8 9 8 8 6 5 5 4 3 3 3 3 3 2 2 1 1 2 3 3 4 4 5 5 6 6 6 6 6 6 6 6 6 6 7 7 6 6 6 6 7 7 6 5 4 3
2 3 5 5 5 6 8 12 15 15 11 11 6 -0 -4 -2 -0 -0 -3 -3 1 6 11 10 7 5 4 4 5 5 5 5 4 3 2 2 3 4 7 8 9 9 9 9 8 8 8 8 8 8 8 7 7 7 7 7 8 8 9 8 7 6 5 5 4 3 2 2 2 2 2 2 2 2 2 3 3 4 5 5 6 6 6 6 6 5 6 6 6 7 7 7 6 6 6 6 6 6 6 5 4 3 2
1 2 4 5 6 6 6 10 15 16 10 10 9 6 2 2 1 1 -2 -4 -4 -1 7 10 10 7 5 4 4 4 5 5 4 4 3 2 3 4 6 8 9 9 9 9 8 8 8 8 8 8 8 8 7 7 7 7 7 8 8 8 7 6 5 4 4 3 3 3 3 3 3 2 2 2 3 3 4 4 5 5 6 6 6 5 5 5 6 6 6 7 7 6 6 6 6 6 6 6 6 5 4 3 1
2 2 3 4 6 6 7 9 12 13 11 9 9 10 9 6 3 -0 -3 -4 -5 -4 1 7 10 9 6 4 4 3 4 4 4 4 3 3 3 3 5 7 8 9 9 9 9 8 8 8 8 8 8 8 7 7 7 6 7 8 8 8 7 6 5 4 4 3 3 3 3 3 3 2 2 3 3 4 4 5 5 6 6 6 6 5 5 5 6 6 6 6 7 6 6 6 6 6 6 5 5 4 3 2 1
2 1 1 4 5 6 7 9 11 11 11 7 8 11 13 9 4 -1 -5 -3 -2 -2 -2 3 7 10 8 6 4 4 4 4 4 4 4 3 3 3 4 6 8 9 9 9 9 8 8 8 8 8 8 8 7 7 6 6 7 7 8 8 7 6 5 4 4 3 3 3 2 2 2 2 2 3 4 4 4 5 6 6 6 6 6 5 5 5 5 6 6 6 6 6 6 5 5 5 5 5 4 3 2 1 0
2 1 1 3 4 5 7 9 10 11 10 7 6 8 10 5 -1 -6 -8 -2 0 -1 -3 -1 4 9 11 8 6 4 4 4 4 4 4 4 3 3 4 5 7 8 8 9 9 9 8 8 8 8 8 8 7 7 7 6 6 7 8 8 7 6 5 4 4 3 3 3 2 2 2 2 2 3 4 4 4 5 6 7 7 6 6 5 5 5 5 6 6 6 6 6 5 5 5 5 5 4 3 2 1 0 -1
-1 0 1 2 3 4 6 8 11 12 11 8 5 3 4 -1 -7 -9 -6 2 4 3 -2 -3 1 7 11 10 8 5 5 4 4 4 4 4 3 3 3 5 6 7 8 8 8 9 9 8 8 8 8 7 7 7 7 6 6 7 7 7 7 6 5 4 4 3 3 2 2 2 2 2 2 3 4 4 4 5 6 7 7 6 6 6 5 5 5 6 6 6 6 6 5 5 5 5 4 4 3 2 1 -1 -2
-3 -2 -1 0 1 3 5 7 10 12 13 9 4 -0 0 -3 -6 -5 -1 6 8 6 0 -2 -0 4 10 11 10 7 5 4 4 4 4 4 3 3 3 4 6 7 7 7 8 8 9 9 8 8 8 7 7 7 7 6 6 6 7 7 7 6 5 5 4 3 3 2 3 3 3 3 3 3 3 4 4 5 6 6 6 6 6 6 6 6 6 6 6 6 6 5 5 5 4 4 4 3 2 1 -0 -2 -3
-3 -2 -1 -0 0 1 2 4 7 11 14 10 3 -3 -4 -4 -3 1 5 8 9 8 3 -1 -0 3 7 11 11 9 6 5 4 4 4 4 3 3 3 4 5 6 7 7 7 7 8 9 9 8 8 8 7 7 7 6 6 6 7 7 7 6 5 5 4 3 3 3 3 4 4 3 3 3 3 4 4 5 6 6 6 6 5 6 6 6 6 6 6 6 5 5 4 4 4 4 3 3 2 0 -1 -3 -4
-1 -1 -0 1 1 0 -1 2 4 7 12 11 5 -3 -8 -5 -1 4 7 7 9 9 5 0 0 3 6 10 12 10 7 6 5 4 4 3 3 3 3 4 5 6 7 7 6 6 7 8 9 9 8 8 7 7 6 6 6 6 6 7 7 7 6 5 4 3 3 3 4 4 4 3 3 3 4 4 5 5 5 5 5 5 5 5 6 6 6 6 6 5 5 4 4 4 4 4 3 2 1 -0 -2 -3 -4
4 3 4 5 5 3 -1 -1 1 3 6 10 8 3 -5 -4 -0 4 6 7 9 10 6 2 1 3 6 9 10 10 8 7 6 5 4 4 3 3 3 3 4 6 7 7 7 6 6 7 8 9 8 8 7 7 7 6 6 6 6 6 7 7 6 5 4 3 3 3 4 4 4 3 3 3 4 5 5 5 5 5 5 5 5 5 6 6 6 6 5 5 4 4 4 3 3 3 3 2 1 -1 -2 -3 -4
10 10 12 12 12 10 5 0 -1 0 2 6 8 9 6 4 4 4 5 6 7 6 3 2 2 4 7 9 9 9 7 7 7 6 5 4 4 3 3 3 4 5 7 8 7 7 6 6 7 8 8 8 8 7 7 7 6 6 6 6 7 6 6 5 4 4 3 4 4 4 4 3 3 3 4 5 5 5 5 6 6 5 5 5 6 6 6 5 5 4 4 3 3 3 3 3 3 2 0 -1 -3 -4 -4
12 14 18 20 20 20 17 9 4 2 2 2 5 9 12 10 7 5 5 4 1 -2 -3 -1 2 4 6 8 9 8 6 6 6 6 6 5 4 3 3 3 3 5 6 7 8 7 6 6 6 7 8 8 8 8 7 7 7 6 6 6 6 6 6 6 5 4 4 4 4 4 3 3 3 4 5 5 5 5 5 6 5 5 5 5 6 6 5 5 4 4 3 3 3 3 3 3 3 1 0 -2 -3 -4 -4
8 12 18 23 26 28 26 21 15 11 7 2 3 7 14 11 8 6 6 3 -1 -5 -5 -3 0 3 5 7 8 8 5 4 4 5 5 5 4 4 3 3 3 4 5 7 8 8 7 6 6 6 8 8 8 8 7 7 7 7 6 6 6 6 6 6 5 5 4 4 4 4 3 4 4 4 5 5 5 5 5 6 5 5 4 5 5 5 5 4 4 3 3 3 3 3 3 3 2 1 -0 -2 -3 -4 -4
13 18 20 19 21 24 27 26 25 22 17 9 4 5 12 12 10 7 6 6 3 -1 -5 -3 -1 2 4 6 8 8 6 4 3 3 4 4 4 3 3 3 3 3 4 6 7 8 8 6 5 5 7 8 8 8 7 7 7 7 6 6 6 6 6 6 6 5 4 4 4 3 3 4 4 4 5 5 5 5 5 6 5 4 4 5 5 5 5 4 4 3 2 2 2 2 3 3 2 1 0 -1 -3 -3 -4
16 25 28 20 16 17 25 29 27 23 19 15 9 5 8 11 11 8 6 8 7 4 0 -2 -1 1 2 5 7 9 8 5 2 1 1 3 3 3 3 3 3 3 3 5 7 8 8 7 6 5 6 7 8 8 8 7 7 7 6 6 6 6 6 6 6 5 5 4 4 3 3 4 4 4 5 5 6 6 5 5 5 4 4 5 5 5 5 4 3 3 2 2 2 2 2 2 2 1 0 -1 -2 -3 -3
-2 6 18 15 9 6 11 17 19 20 22 19 14 10 8 12 14 13 9 7 7 7 6 2 0 -0 1 4 7 9 10 7 3 -1 -3 1 3 4 3 3 3 3 3 4 5 7 8 7 6 5 5 7 8 8 8 8 7 7 7 6 6 6 6 6 6 6 5 4 4 4 3 4 4 4 5 5 6 6 5 5 4 4 4 4 5 5 5 4 3 2 2 1 1 2 2 2 2 1 1 -0 -1 -2 -3
-17 -22 -15 -7 -5 -4 -1 3 8 14 21 24 23 20 17 19 21 21 15 10 7 7 7 6 3 2 2 7 10 10 9 7 2 -2 -4 0 3 4 3 2 2 3 4 3 4 6 7 7 6 5 5 6 7 8 9 8 7 7 7 6 6 6 6 6 6 6 5 5 4 4 4 4 4 4 5 5 6 5 5 4 4 4 4 4 4 4 4 4 3 2 1 1 1 1 2 2 2 2 1 1 -0 -1 -2
-11 -24 -37 -31 -20 -10 -5 -6 -3 4 15 26 30 29 25 24 26 27 24 17 11 7 6 5 4 4 7 9 10 9 7 2 -2 -3 2 6 6 5 2 2 2 2 3 3 4 5 6 7 6 6 4 5 6 8 8 8 8 7 7 6 6 6 6 6 6 6 5 5 5 4 4 4 4 4 5 5 6 5 5 4 3 3 3 3 4 4 4 3 3 2 1 1 1 1 1 2 2 2 2 1 1 -0 -1
-0 -10 -29 -35 -27 -15 -9 -17 -19 -16 -6 7 17 22 20 16 17 19 20 19 15 10 6 5 3 4 7 9 10 9 5 -2 -3 1 11 16 13 7 2 1 1 1 2 3 4 4 5 6 7 6 5 5 5 7 8 8 8 8 7 7 6 6 6 6 6 6 5 5 5 5 4 4 4 4 5 5 6 5 4 3 3 2 2 3 3 3 3 3 3 2 2 1 1 1 1 1 2 2 2 2 2 1 0
3 0 -6 -16 -16 -12 -9 -20 -29 -33 -31 -22 -12 -4 -0 -2 -0 4 8 9 11 12 8 5 4 4 3 7 9 8 3 -2 0 6 14 23 22 14 0 -0 -1 -0 2 3 5 5 4 5 6 7 6 5 5 6 7 8 8 8 8 7 6 6 6 6 6 5 5 5 5 5 5 5 5 5 5 6 6 5 4 3 2 1 2 2 3 3 3 3 3 2 2 2 1 1 1 1 1 2 2 3 3 2 2
4 3 5 4 2 -1 -0 -2 -8 -16 -24 -23 -19 -17 -17 -20 -14 -2 12 11 11 11 9 5 5 6 6 8 9 8 2 -1 3 9 16 25 28 23 11 4 -1 -2 -1 2 4 5 4 5 6 6 6 5 5 5 5 7 8 8 8 7 7 7 6 6 6 5 5 5 5 5 5 5 5 5 5 6 6 5 4 2 1 1 1 1 2 2 3 3 3 3 3 2 2 2 1 1 1 2 2 3 3 3 3
6 6 6 9 7 4 2 8 12 12 6 1 -2 -3 -5 -13 -12 2 31 27 20 14 13 8 6 6 8 12 13 11 4 0 1 7 16 29 33 30 19 8 2 -2 -3 -1 1 3 5 3 4 5 7 6 5 5 4 6 7 8 8 8 8 7 6 6 6 5 5 5 5 5 5 5 5 5 6 6 6 5 4 2 1 1 1 1 1 2 3 3 3 3 3 3 3 2 2 2 1 2 2 3 3 3 3
8 8 7 9 8 6 3 4 9 15 20 17 15 13 13 11 12 18 34 37 29 20 19 15 9 4 6 11 13 12 6 1 -1 1 4 23 27 20 8 7 3 -0 -0 1 1 0 2 3 3 4 6 6 6 5 4 5 6 7 9 9 8 7 7 7 6 6 5 5 5 5 5 5 5 5 6 6 6 5 4 3 2 1 1 1 1 2 3 3 4 4 4 4 3 3 2 2 2 2 2 3 3 3 3
13 12 11 11 11 9 7 5 5 8 15 19 20 19 18 20 21 23 28 33 29 23 21 21 14 6 2 7 10 10 7 3 1 -1 -3 8 22 26 10 7 2 -2 0 6 5 2 -0 2 4 5 6 6 6 6 5 5 5 6 8 9 9 8 7 7 6 6 6 5 5 5 5 5 5 5 5 6 6 5 5 3 2 1 1 1 2 2 3 4 4 5 5 5 4 4 3 2 2 2 3 3 3 4 3
14 14 13 13 13 12 11 9 8 7 8 12 16 17 17 15 14 16 22 28 26 21 18 20 17 10 0 3 7 10 9 6 4 3 1 2 12 21 19 9 3 -1 -4 -0 2 3 3 2 2 4 6 6 6 6 5 5 5 6 7 9 9 9 8 7 6 6 6 6 5 5 5 5 5 5 5 5 5 5 5 4 3 2 1 2 2 3 4 4 5 5 5 5 5 4 4 3 3 3 3 3 4 4 4
10 11 12 13 13 14 13 12 10 8 6 7 9 9 9 7 6 8 14 20 20 16 12 15 16 13 2 -4 0 8 11 7 7 8 9 7 8 10 15 10 7 4 2 -1 -2 0 5 4 3 2 2 4 6 7 6 6 5 6 6 8 8 9 8 7 7 6 6 6 5 5 5 5 4 4 4 5 5 5 5 4 3 3 2 2 3 4 4 5 5 6 6 6 5 5 4 4 3 3 3 4 4 4 4
9 9 10 11 12 12 13 12 11 10 8 6 4 3 2 1 1 2 5 11 14 13 9 11 13 15 15 2 -4 -2 5 6 8 9 10 11 10 9 9 10 7 5 11 4 2 2 2 4 4 3 0 3 5 7 7 6 6 5 6 7 8 8 8 8 7 7 6 6 5 5 4 4 4 4 4 4 4 5 5 5 4 4 3 3 4 4 5 6 6 6 6 6 6 5 5 4 4 4 4 4 4 4 5
10 9 8 9 10 11 12 12 12 12 11 8 4 1 -1 -2 -2 -1 1 5 8 9 8 4 1 5 21 27 14 -3 -7 -1 2 4 5 5 6 8 10 9 6 3 5 7 7 5 1 2 2 2 2 2 3 5 6 7 6 5 5 6 7 8 8 8 7 7 7 6 5 5 5 5 5 5 5 5 5 5 5 5 5 5 4 5 5 6 6 7 7 7 7 6 6 6 5 5 4 4 4 4 4 4 5
10 10 9 9 10 11 12 12 12 13 13 11 7 4 1 -1 -2 -1 0 3 4 4 2 -6 -12 -11 4 34 35 19 -5 -4 -2 -1 -1 -2 0 3 6 7 6 4 2 6 9 9 6 4 3 3 3 2 2 3 4 5 6 6 5 5 5 6 8 8 8 8 8 7 7 6 6 6 5 5 5 5 5 5 5 6 6 6 6 7 7 8 8 8 8 8 7 7 7 6 6 5 4 4 3 4 4 4 4
10 10 9 10 11 11 12 12 13 13 14 14 12 9 6 3 1 0 0 3 4 4 -0 -8 -11 -11 -5 17 32 33 13 5 2 2 1 1 1 2 4 5 5 5 6 9 11 11 7 3 1 1 2 1 1 2 3 3 4 4 5 5 5 5 7 8 9 9 9 9 8 8 7 7 7 7 6 6 6 6 7 7 7 8 8 9 9 10 10 9 9 8 8 7 7 7 6 5 4 3 3 4 4 4 4
Height
3145 3146 3146 3146 3147 3147 3148 3148 3149 3149 3149 3150 3150 3150 3151 3151 3151 3152 3152 3153 3153 3153 3153 3153 3153 3153 3153 3153 3153 3153 3152 3152 3152 3152 3152 3152 3152 3152 3152 3152 3152 3153 3153 3153 3154 3154 3155 3155 3155 3156 3156 3156 3157 3157 3157 3158 3158 3159 3159 3160 3160 3160 3160 3161 3161 3161 3161 3162 3162 3162 3162 3162 3162 3163 3163 3163 3163 3163 3163 3163 3163 3163 3163 3163 3163 3163 3163 3163 3162 3162 3162 3162 3162 3161 3161 3161 3160 3160 3160 3160 3160 3160 3159
3145 3145 3145 3146 3146 3147 3147 3148 3148 3148 3149 3149 3149 3150 3150 3150 3151 3151 3152 3152 3152 3153 3153 3153 3153 3153 3153 3153 3153 3152 3152 3152 3152 3151 3151 3152 3152 3152 3152 3152 3152 3153 3153 3153 3154 3154 3155 3155 3155 3156 3156 3156 3157 3157 3157 3158 3158 3159 3159 3160 3160 3160 3160 3161 3161 3161 3161 3162 3162 3162 3162 3162 3163 3163 3163 3163 3163 3163 3163 3163 3163 3163 3163 3163 3163 3163 3163 3163 3163 3162 3162 3162 3162 3162 3161 3161 3161 3160 3160 3160 3160 3160 3159
3144 3145 3145 3145 3146 3146 3147 3147 3147 3148 3148 3149 3149 3149 3150 3150 3150 3151 3151 3152 3152 3152 3152 3152 3152 3152 3152 3152 3152 3152 3152 3152 3151 3151 3151 3151 3152 3152 3152 3152 3152 3153 3153 3153 3154 3154 3155 3155 3155 3156 3156 3156 3157 3157 3158 3158 3158 3159 3159 3160 3160 3160 3161 3161 3161 3161 3162 3162 3162 3162 3163 3163 3163 3163 3163 3163 3163 3163 3163 3164 3164 3164 3164 3164 3164 3164 3163 3163 3163 3163 3162 3162 3162 3162 3161 3161 3161 3160 3160 3160 3160 3160 3160
3144 3144 3145 3145 3145 3146 3146 3146 3147 3147 3148 3148 3149 3149 3150 3150 3150 3150 3151 3151 3151 3152 3152 3152 3152 3152 3152 3152 3152 3152 3152 3151 3151 3151 3151 3151 3152 3152 3152 3152 3152 3153 3153 3153 3154 3154 3155 3155 3155 3156 3156 3156 3157 3157 3157 3158 3158 3159 3159 3160 3160 3160 3160 3161 3161 3161 3162 3162 3162 3163 3163 3163 3163 3163 3163 3163 3164 3164 3164 3164 3164 3164 3164 3164 3164 3164 3164 3163 3163 3163 3163 3162 3162 3162 3161 3161 3161 3161 3160 3160 3160 3160 3160
3144 3144 3144 3145 3145 3145 3146 3146 3146 3147 3147 3148 3148 3149 3149 3150 3150 3150 3150 3151 3151 3151 3151 3151 3152 3152 3152 3152 3152 3152 3151 3151 3151 3151 3151 3151 3151 3152 3152 3152 3152 3152 3153 3153 3154 3154 3155 3155 3155 3155 3156 3156 3157 3157 3157 3158 3158 3158 3159 3159 3160 3160 3160 3161 3161 3162 3162 3162 3162 3163 3163 3163 3163 3163 3163 3164 3164 3164 3164 3164 3164 3164 3164 3164 3164 3164 3164 3164 3164 3163 3163 3163 3162 3162 3162 3161 3161 3161 3161 3160 3160 3160 3160
3143 3144 3144 3144 3145 3145 3145 3146 3146 3146 3147 3147 3148 3148 3149 3149 3150 3150 3150 3150 3151 3151 3151 3151 3151 3151 3151 3151 3152 3151 3151 3151 3151 3151 3151 3151 3151 3151 3152 3152 3152 3152 3153 3153 3154 3154 3154 3155 3155 3155 3156 3156 3156 3157 3157 3158 3158 3158 3159 3159 3160 3160 3160 3161 3161 3161 3162 3162 3162 3163 3163 3163 3163 3163 3164 3164 3164 3164 3164 3164 3164 3164 3164 3164 3164 3164 3164 3164 3164 3163 3163 3163 3162 3162 3162 3162 3161 3161 3161 3161 3160 3160 3160
3143 3143 3144 3144 3144 3145 3145 3145 3146 3146 3146 3147 3147 3148 3148 3149 3149 3149 3150 3150 3150 3150 3150 3151 3151 3151 3151 3151 3151 3151 3151 3151 3151 3151 3151 3151 3151 3151 3152 3152 3152 3152 3153 3153 3153 3154 3154 3155 3155 3155 3155 3156 3156 3157 3157 3157 3158 3158 3159 3159 3159 3160 3160 3160 3161 3161 3161 3162 3162 3162 3163 3163 3163 3163 3164 3164 3164 3164 3164 3164 3164 3164 3164 3164 3165 3165 3164 3164 3164 3164 3163 3163 3163 3162 3162 3162 3162 3161 3161 3161 3160 3160 3160
3143 3143 3143 3143 3144 3144 3145 3145 3145 3146 3146 3146 3147 3147 3148 3148 3149 3149 3149 3150 3150 3150 3150 3150 3150 3151 3151 3151 3151 3151 3151 3151 3150 3150 3150 3151 3151 3151 3151 3152 3152 3152 3152 3153 3153 3154 3154 3155 3155 3155 3155 3156 3156 3156 3157 3157 3158 3158 3158 3159 3159 3160 3160 3160 3161 3161 3161 3162 3162 3162 3163 3163 3163 3163 3163 3164 3164 3164 3164 3164 3164 3164 3164 3164 3164 3164 3164 3164 3164 3164 3163 3163 3163 3162 3162 3162 3162 3161 3161 3161 3161 3160 3160
3143 3143 3142 3143 3143 3144 3144 3145 3145 3145 3146 3146 3146 3147 3147 3148 3148 3148 3149 3149 3149 3150 3150 3150 3150 3150 3150 3150 3150 3150 3150 3150 3150 3150 3150 3150 3151 3151 3151 3151 3152 3152 3152 3153 3153 3154 3154 3155 3155 3155 3155 3156 3156 3156 3157 3157 3157 3158 3158 3159 3159 3160 3160 3160 3161 3161 3161 3162 3162 3162 3162 3163 3163 3163 3163 3164 3164 3164 3164 3164 3164 3164 3164 3164 3164 3164 3164 3164 3164 3164 3163 3163 3163 3163 3162 3162 3162 3162 3161 3161 3161 3160 3160
3142 3143 3142 3142 3142 3143 3144 3144 3145 3145 3145 3145 3146 3146 3147 3147 3147 3148 3148 3148 3149 3149 3149 3150 3150 3150 3150 3150 3150 3150 3150 3150 3150 3150 3150 3150 3150 3151 3151 3151 3151 3152 3152 3152 3153 3153 3154 3154 3155 3155 3155 3156 3156 3156 3157 3157 3157 3158 3158 3159 3159 3159 3160 3160 3160 3161 3161 3161 3162 3162 3162 3163 3163 3163 3163 3164 3164 3164 3164 3164 3164 3164 3164 3164 3164 3164 3164 3164 3164 3164 3163 3163 3163 3163 3162 3162 3162 3162 3161 3161 3161 3161 3160
3141 3142 3141 3141 3142 3142 3143 3143 3144 3144 3145 3145 3145 3146 3146 3146 3147 3147 3147 3148 3148 3148 3149 3149 3149 3150 3150 3150 3150 3150 3150 3150 3150 3150 3150 3150 3150 3150 3151 3151 3151 3152 3152 3152 3153 3153 3154 3154 3155 3155 3155 3155 3156 3156 3156 3157 3157 3158 3158 3158 3159 3159 3160 3160 3160 3161 3161 3161 3162 3162 3162 3162 3163 3163 3163 3163 3164 3164 3164 3164 3164 3164 3164 3164 3164 3164 3164 3164 3164 3164 3163 3163 3163 3163 3162 3162 3162 3162 3161 3161 3161 3161 3160
3139 3140 3141 3141 3141 3142 3142 3143 3143 3144 3144 3145 3145 3145 3145 3146 3146 3146 3147 3147 3147 3148 3148 3149 3149 3149 3149 3149 3150 3150 3150 3150 3150 3150 3150 3150 3150 3150 3150 3151 3151 3151 3152 3152 3153 3153 3153 3154 3154 3155 3155 3155 3156 3156 3156 3156 3157 3157 3158 3158 3159 3159 3160 3160 3160 3161 3161 3161 3161 3162 3162 3162 3162 3163 3163 3163 3164 3164 3164 3164 3165 3164 3164 3164 3164 3164 3164 3164 3164 3163 3163 3163 3163 3163 3163 3162 3162 3162 3162 3161 3161 3161 3160
3138 3139 3141 3141 3141 3141 3141 3142 3143 3143 3143 3144 3144 3145 3145 3145 3146 3146 3146 3146 3147 3147 3148 3148 3148 3149 3149 3149 3149 3149 3149 3150 3150 3150 3150 3150 3150 3150 3150 3151 3151 3151 3152 3152 3152 3153 3153 3154 3154 3154 3155 3155 3155 3156 3156 3156 3157 3157 3158 3158 3159 3159 3159 3160 3160 3160 3161 3161 3161 3162 3162 3162 3162 3163 3163 3163 3163 3164 3164 3164 3165 3164 3164 3164 3164 3164 3164 3164 3164 3163 3163 3163 3163 3163 3163 3162 3162 3162 3162 3161 3161 3161 3160
3138 3139 3140 3140 3140 3141 3141 3141 3142 3142 3143 3143 3144 3144 3144 3145 3145 3145 3145 3146 3146 3147 3147 3147 3148 3148 3148 3148 3149 3149 3149 3149 3149 3149 3150 3150 3150 3150 3150 3150 3151 3151 3151 3152 3152 3153 3153 3153 3154 3154 3155 3155 3155 3155 3156 3156 3157 3157 3158 3158 3158 3159 3159 3159 3160 3160 3160 3161 3161 3161 3162 3162 3162 3162 3163 3163 3163 3164 3164 3164 3164 3164 3164 3164 3164 3164 3164 3164 3164 3163 3163 3163 3163 3163 3162 3162 3162 3162 3162 3161 3161 3161 3160
3139 3140 3140 3140 3140 3140 3140 3141 3141 3141 3142 3142 3143 3143 3144 3144 3145 3145 3145 3145 3145 3146 3146 3147 3147 3147 3148 3148 3148 3148 3149 3149 3149 3149 3149 3149 3150 3150 3150 3150 3150 3151 3151 3152 3152 3152 3153 3153 3154 3154 3155 3155 3155 3155 3156 3156 3156 3157 3157 3158 3158 3158 3159 3159 3160 3160 3160 3160 3161 3161 3162 3162 3162 3162 3162 3163 3163 3163 3164 3164 3164 3164 3164 3164 3164 3164 3164 3164 3164 3163 3163 3163 3163 3163 3162 3162 3162 3162 3162 3161 3161 3161 3161
3138 3140 3140 3140 3139 3139 3140 3140 3140 3141 3141 3142 3142 3143 3143 3143 3144 3144 3144 3145 3145 3145 3146 3146 3147 3147 3147 3147 3148 3148 3148 3148 3149 3149 3149 3149 3149 3150 3150 3150 3150 3151 3151 3152 3152 3152 3153 3153 3154 3154 3154 3155 3155 3155 3155 3156 3156 3157 3157 3157 3158 3158 3158 3160 3160 3160 3160 3160 3161 3161 3161 3162 3162 3162 3162 3163 3163 3163 3163 3164 3164 3164 3164 3164 3164 3164 3164 3164 3163 3163 3163 3163 3163 3162 3162 3162 3162 3162 3162 3161 3161 3161 3160
3136 3138 3138 3139 3139 3138 3139 3139 3140 3140 3140 3141 3141 3142 3142 3143 3143 3143 3144 3144 3144 3145 3145 3145 3146 3146 3146 3147 3147 3147 3148 3148 3148 3148 3149 3149 3149 3149 3150 3150 3150 3150 3151 3151 3152 3152 3152 3153 3153 3154 3154 3154 3155 3155 3155 3156 3156 3156 3157 3157 3157 3158 3158 3160 3160 3160 3160 3160 3160 3161 3161 3161 3162 3162 3162 3162 3163 3163 3163 3163 3164 3164 3164 3164 3164 3164 3164 3164 3163 3163 3163 3163 3162 3162 3162 3162 3162 3162 3162 3161 3161 3161 3160
3135 3136 3137 3138 3138 3138 3138 3139 3139 3139 3140 3140 3140 3141 3141 3142 3142 3143 3143 3143 3144 3144 3144 3145 3145 3146 3146 3146 3146 3147 3147 3147 3148 3148 3148 3148 3149 3149 3149 3149 3150 3150 3150 3151 3151 3152 3152 3153 3153 3153 3154 3154 3154 3155 3155 3156 3156 3156 3156 3157 3157 3157 3158 3159 3160 3160 3160 3160 3160 3160 3161 3161 3161 3162 3162 3162 3162 3163 3163 3163 3163 3163 3164 3164 3164 3164 3164 3163 3163 3163 3163 3163 3162 3162 3162 3162 3162 3162 3162 3161 3161 3161 3160
3134 3135 3135 3136 3137 3138 3138 3138 3138 3138 3138 3139 3140 3140 3140 3141 3141 3142 3142 3142 3143 3143 3144 3144 3145 3145 3145 3146 3146 3146 3147 3147 3147 3148 3148 3148 3148 3148 3149 3149 3149 3150 3150 3150 3151 3151 3152 3152 3153 3153 3153 3154 3154 3154 3155 3155 3156 3156 3156 3157 3157 3157 3158 3158 3159 3159 3159 3160 3160 3160 3160 3161 3161 3161 3162 3162 3162 3162 3162 3163 3163 3163 3163 3163 3164 3164 3163 3163 3163 3163 3163 3162 3162 3162 3162 3162 3162 3162 3162 3161 3161 3161 3160
3133 3134 3134 3135 3135 3136 3137 3137 3137 3137 3137 3138 3139 3139 3139 3140 3140 3141 3141 3141 3142 3142 3143 3143 3144 3144 3145 3145 3145 3146 3146 3146 3147 3147 3147 3147 3148 3148 3148 3148 3149 3149 3150 3150 3150 3151 3151 3152 3152 3153 3153 3153 3154 3154 3155 3155 3155 3156 3156 3156 3157 3157 3157 3158 3158 3159 3159 3160 3160 3160 3160 3160 3161 3161 3161 3162 3162 3162 3162 3162 3162 3163 3163 3163 3163 3163 3163 3163 3163 3163 3162 3162 3162 3162 3162 3162 3162 3162 3161 3161 3161 3161 3160
3132 3133 3132 3133 3134 3135 3135 3135 3135 3136 3136 3137 3138 3139 3138 3139 3140 3140 3140 3140 3141 3141 3142 3142 3143 3144 3144 3145 3145 3145 3145 3146 3146 3146 3147 3147 3147 3147 3147 3148 3148 3149 3149 3149 3150 3150 3151 3151 3152 3152 3153 3153 3153 3154 3154 3155 3155 3155 3155 3156 3156 3157 3157 3158 3158 3158 3159 3159 3160 3160 3160 3160 3160 3161 3161 3161 3161 3162 3162 3162 3162 3162 3162 3163 3163 3163 3163 3163 3163 3163 3162 3162 3162 3162 3162 3162 3162 3162 3161 3161 3161 3160 3160
3131 3132 3131 3132 3132 3133 3134 3134 3135 3135 3135 3136 3137 3138 3138 3138 3139 3139 3140 3140 3140 3140 3141 3142 3142 3143 3143 3144 3144 3145 3145 3145 3145 3146 3146 3146 3147 3147 3147 3147 3147 3148 3148 3149 3149 3150 3150 3150 3151 3151 3152 3152 3153 3153 3154 3154 3155 3155 3155 3155 3156 3156 3157 3157 3158 3158 3159 3159 3159 3159 3160 3160 3160 3160 3161 3161 3161 3161 3161 3161 3162 3162 3162 3162 3162 3163 3163 3163 3163 3162 3162 3162 3162 3162 3162 3162 3161 3161 3161 3161 3161 3160 3160
3130 3130 3131 3131 3131 3132 3133 3134 3134 3134 3134 3135 3135 3136 3137 3137 3138 3139 3139 3139 3140 3140 3140 3141 3141 3142 3143 3143 3144 3144 3145 3145 3145 3145 3145 3146 3146 3146 3146 3146 3147 3147 3148 3148 3148 3149 3150 3150 3150 3151 3151 3152 3152 3152 3153 3154 3154 3154 3155 3155 3155 3156 3156 3157 3157 3158 3158 3158 3159 3159 3159 3160 3160 3160 3160 3160 3161 3161 3161 3161 3161 3161 3161 3162 3162 3162 3162 3162 3162 3162 3162 3162 3161 3161 3161 3161 3161 3161 3161 3161 3161 3160 3160
3129 3129 3130 3130 3130 3131 3133 3133 3133 3133 3134 3134 3135 3135 3136 3136 3137 3138 3139 3139 3139 3139 3140 3140 3140 3141 3142 3142 3143 3144 3144 3144 3144 3144 3144 3145 3145 3145 3145 3146 3146 3146 3147 3147 3148 3148 3149 3149 3150 3150 3150 3151 3151 3152 3152 3153 3153 3154 3154 3155 3155 3155 3156 3156 3157 3157 3158 3158 3158 3158 3159 3159 3159 3160 3160 3160 3160 3160 3161 3161 3161 3161 3161 3161 3161 3162 3162 3162 3162 3162 3162 3161 3161 3161 3161 3161 3161 3161 3161 3161 3160 3160 3160
3128 3129 3129 3129 3130 3131 3133 3133 3132 3132 3132 3133 3134 3134 3135 3135 3136 3136 3138 3138 3138 3139 3139 3140 3140 3141 3141 3142 3142 3143 3143 3143 3143 3143 3144 3144 3145 3145 3145 3145 3145 3145 3146 3146 3147 3147 3148 3149 3149 3150 3150 3150 3150 3151 3152 3152 3153 3153 3153 3154 3154 3155 3155 3156 3156 3157 3157 3157 3158 3158 3158 3158 3159 3159 3160 3160 3160 3160 3160 3160 3160 3160 3160 3161 3161 3161 3161 3162 3162 3162 3161 3161 3161 3161 3161 3161 3161 3161 3161 3161 3160 3160 3160
3127 3128 3128 3129 3129 3130 3131 3132 3132 3132 3131 3132 3133 3133 3134 3134 3135 3135 3136 3137 3137 3138 3138 3139 3140 3140 3140 3141 3141 3142 3142 3142 3142 3143 3143 3143 3144 3144 3144 3144 3145 3145 3145 3145 3146 3147 3147 3148 3148 3149 3149 3149 3150 3150 3151 3151 3152 3152 3153 3153 3154 3154 3155 3155 3156 3156 3156 3157 3157 3157 3158 3158 3158 3159 3159 3159 3160 3160 3160 3160 3160 3160 3160 3160 3160 3160 3161 3161 3161 3161 3161 3161 3161 3160 3160 3160 3161 3161 3160 3160 3160 3160 3160
3126 3127 3127 3128 3128 3129 3130 3131 3131 3131 3131 3131 3131 3132 3133 3133 3134 3134 3135 3136 3136 3137 3137 3138 3139 3139 3140 3140 3140 3141 3141 3141 3142 3142 3142 3143 3143 3143 3143 3144 3144 3144 3145 3145 3145 3146 3146 3147 3147 3148 3148 3149 3149 3150 3150 3151 3151 3151 3152 3152 3153 3154 3154 3155 3155 3155 3156 3156 3156 3157 3157 3157 3158 3158 3159 3159 3159 3159 3160 3160 3160 3160 3160 3160 3160 3160 3160 3161 3161 3161 3161 3160 3160 3160 3160 3160 3160 3160 3160 3160 3160 3160 3160
3125 3125 3126 3127 3127 3128 3129 3130 3130 3130 3130 3130 3130 3131 3132 3132 3133 3133 3134 3135 3135 3136 3136 3137 3138 3138 3139 3139 3140 3140 3140 3140 3141 3141 3141 3142 3142 3142 3143 3143 3143 3144 3144 3144 3145 3145 3145 3146 3146 3147 3147 3148 3148 3149 3150 3150 3150 3150 3151 3152 3152 3153 3153 3154 3154 3155 3155 3155 3156 3156 3156 3157 3157 3157 3158 3158 3158 3159 3159 3159 3159 3159 3159 3159 3160 3160 3160 3160 3160 3160 3160 3160 3160 3160 3160 3160 3160 3160 3160 3160 3160 3160 3159
3123 3124 3125 3125 3126 3127 3128 3129 3129 3129 3129 3129 3129 3130 3130 3131 3132 3132 3133 3134 3135 3135 3135 3135 3136 3137 3138 3138 3139 3139 3140 3140 3140 3140 3141 3141 3141 3142 3142 3142 3142 3143 3143 3143 3144 3144 3145 3145 3145 3146 3146 3147 3147 3148 3148 3149 3150 3150 3150 3151 3151 3152 3152 3153 3153 3154 3155 3155 3155 3155 3156 3156 3156 3157 3157 3157 3158 3158 3158 3158 3159 3159 3159 3159 3159 3159 3160 3160 3160 3160 3160 3160 3160 3160 3160 3160 3160 3160 3160 3160 3160 3159 3159
3122 3123 3123 3124 3125 3125 3126 3128 3128 3129 3129 3130 3130 3129 3129 3130 3131 3131 3132 3132 3133 3134 3134 3135 3135 3136 3137 3137 3138 3138 3139 3139 3139 3140 3140 3140 3140 3141 3141 3141 3141 3142 3142 3142 3143 3143 3144 3144 3145 3145 3145 3145 3146 3147 3147 3148 3149 3149 3150 3150 3150 3151 3152 3152 3153 3153 3154 3154 3154 3155 3155 3155 3156 3156 3156 3157 3157 3157 3157 3158 3158 3158 3158 3158 3158 3158 3159 3159 3160 3160 3159 3159 3159 3159 3159 3159 3159 3159 3159 3159 3159 3159 3159
3120 3121 3122 3123 3123 3124 3125 3126 3126 3127 3128 3129 3129 3128 3128 3129 3130 3130 3130 3131 3132 3133 3133 3134 3134 3135 3135 3136 3137 3137 3137 3138 3138 3139 3139 3139 3140 3140 3140 3140 3140 3141 3141 3141 3142 3142 3143 3143 3144 3144 3144 3145 3145 3146 3146 3147 3148 3148 3149 3149 3150 3150 3151 3151 3152 3152 3153 3153 3154 3155 3155 3155 3155 3155 3155 3156 3156 3157 3157 3157 3157 3157 3157 3157 3158 3158 3158 3158 3159 3159 3159 3159 3159 3159 3159 3159 3159 3159 3159 3159 3159 3159 3158
3119 3120 3120 3121 3122 3123 3124 3124 3125 3126 3127 3128 3127 3127 3127 3127 3128 3129 3129 3130 3130 3131 3132 3133 3134 3134 3135 3135 3136 3136 3136 3136 3137 3138 3138 3138 3139 3139 3139 3139 3140 3140 3140 3140 3141 3141 3142 3142 3143 3143 3144 3144 3144 3145 3145 3146 3147 3147 3148 3148 3149 3150 3150 3150 3151 3151 3152 3152 3153 3154 3154 3154 3154 3155 3155 3155 3156 3156 3156 3156 3156 3157 3157 3157 3157 3157 3157 3158 3158 3158 3159 3158 3158 3158 3158 3158 3158 3158 3158 3158 3158 3158 3158
3117 3118 3119 3120 3120 3121 3122 3123 3123 3124 3125 3126 3126 3126 3126 3126 3127 3128 3128 3128 3129 3130 3131 3132 3132 3133 3133 3133 3134 3135 3135 3135 3136 3136 3137 3137 3137 3138 3138 3138 3138 3139 3139 3140 3140 3141 3141 3141 3142 3142 3143 3143 3143 3144 3144 3145 3145 3146 3147 3147 3148 3149 3149 3150 3150 3150 3151 3151 3152 3152 3153 3153 3154 3154 3154 3155 3155 3155 3155 3155 3156 3156 3156 3156 3156 3156 3157 3157 3157 3158 3158 3158 3158 3158 3158 3158 3158 3158 3158 3158 3158 3158 3158
3116 3117 3118 3118 3119 3120 3121 3122 3122 3123 3124 3125 3125 3125 3125 3125 3125 3126 3127 3127 3128 3128 3129 3130 3131 3131 3132 3132 3132 3133 3134 3134 3135 3135 3136 3136 3136 3136 3137 3137 3137 3138 3138 3139 3139 3140 3140 3140 3141 3141 3141 3142 3142 3143 3143 3144 3144 3145 3146 3146 3147 3148 3148 3149 3149 3150 3150 3151 3151 3151 3152 3152 3153 3153 3153 3154 3154 3155 3155 3155 3155 3155 3155 3155 3156 3156 3156 3156 3157 3157 3157 3157 3157 3157 3157 3157 3157 3157 3157 3157 3157 3157 3157
3114 3115 3116 3117 3118 3118 3119 3120 3121 3121 3122 3123 3124 3124 3123 3123 3124 3125 3126 3126 3126 3127 3127 3128 3129 3130 3130 3130 3130 3131 3132 3133 3133 3134 3135 3135 3135 3135 3135 3136 3136 3137 3137 3138 3138 3139 3139 3140 3140 3140 3140 3141 3141 3142 3142 3143 3143 3144 3145 3145 3146 3146 3147 3148 3148 3149 3149 3150 3150 3151 3151 3151 3152 3152 3153 3153 3153 3154 3154 3154 3154 3155 3155 3155 3155 3155 3155 3156 3156 3156 3156 3156 3156 3156 3156 3156 3157 3157 3157 3157 3157 3157 3156
3112 3113 3114 3115 3116 3117 3118 3119 3120 3120 3120 3122 3122 3122 3122 3122 3123 3124 3125 3125 3125 3125 3126 3126 3127 3128 3129 3129 3129 3130 3131 3131 3132 3132 3133 3134 3134 3134 3135 3135 3135 3136 3136 3137 3137 3138 3138 3139 3139 3139 3140 3140 3140 3140 3141 3142 3142 3143 3144 3144 3145 3145 3146 3147 3147 3148 3148 3149 3149 3150 3150 3150 3151 3152 3152 3152 3153 3153 3153 3153 3154 3154 3154 3154 3154 3155 3155 3155 3155 3155 3156 3156 3156 3156 3156 3156 3156 3156 3156 3156 3156 3156 3156
3110 3111 3112 3114 3115 3115 3116 3117 3118 3119 3119 3120 3121 3121 3121 3121 3121 3122 3123 3124 3124 3124 3124 3125 3126 3127 3127 3127 3127 3128 3129 3130 3130 3131 3131 3132 3133 3133 3133 3134 3134 3135 3135 3136 3136 3137 3137 3137 3138 3138 3138 3139 3139 3140 3140 3141 3141 3142 3143 3143 3144 3144 3145 3145 3146 3147 3147 3148 3148 3149 3149 3150 3150 3151 3151 3151 3152 3152 3152 3152 3153 3153 3153 3153 3154 3154 3154 3154 3155 3155 3155 3155 3155 3155 3155 3155 3155 3155 3155 3155 3155 3155 3155
3108 3109 3110 3111 3113 3114 3115 3115 3116 3117 3118 3118 3119 3120 3120 3120 3119 3120 3121 3122 3122 3123 3122 3123 3124 3125 3126 3126 3126 3127 3128 3129 3129 3130 3130 3131 3131 3131 3132 3133 3133 3133 3134 3135 3135 3135 3136 3136 3137 3137 3137 3138 3138 3139 3139 3140 3140 3141 3141 3142 3143 3143 3144 3145 3145 3146 3146 3147 3147 3148 3148 3149 3149 3150 3150 3150 3150 3151 3151 3152 3152 3152 3152 3153 3153 3153 3153 3154 3154 3154 3154 3154 3154 3155 3155 3155 3155 3155 3155 3155 3155 3155 3155
3106 3107 3108 3109 3110 3112 3113 3113 3114 3115 3116 3116 3117 3118 3118 3118 3117 3117 3119 3120 3120 3121 3121 3121 3121 3123 3124 3125 3125 3125 3126 3127 3128 3128 3129 3129 3130 3130 3131 3131 3132 3132 3133 3133 3134 3135 3135 3135 3136 3136 3136 3137 3137 3138 3138 3139 3139 3140 3140 3141 3141 3142 3143 3143 3144 3145 3145 3146 3146 3147 3147 3148 3148 3149 3149 3149 3150 3150 3151 3151 3151 3151 3152 3152 3152 3152 3152 3153 3153 3153 3153 3154 3154 3154 3154 3154 3154 3154 3155 3154 3154 3154 3154
3102 3104 3105 3107 3108 3110 3110 3111 3112 3113 3114 3115 3115 3116 3117 3116 3115 3115 3117 3118 3119 3120 3119 3119 3120 3120 3122 3123 3123 3124 3125 3125 3126 3126 3127 3128 3128 3129 3129 3130 3130 3131 3131 3132 3132 3133 3134 3134 3135 3135 3135 3136 3136 3136 3137 3138 3138 3139 3139 3140 3140 3141 3142 3142 3143 3144 3144 3145 3145 3146 3146 3147 3147 3148 3148 3148 3149 3149 3150 3150 3150 3150 3151 3151 3151 3151 3152 3152 3152 3152 3153 3153 3153 3153 3153 3153 3153 3153 3154 3154 3153 3153 3153
3100 3100 3102 3104 3106 3107 3108 3109 3109 3110 3111 3112 3113 3114 3115 3115 3115 3114 3115 3116 3117 3118 3118 3117 3118 3118 3120 3121 3121 3122 3123 3124 3125 3125 3125 3126 3127 3127 3128 3128 3129 3129 3130 3130 3131 3132 3132 3133 3133 3134 3134 3135 3135 3135 3136 3136 3137 3137 3138 3139 3139 3140 3140 3141 3142 3142 3143 3144 3144 3145 3145 3146 3146 3147 3147 3147 3148 3148 3148 3150 3150 3150 3150 3150 3150 3151 3151 3151 3151 3152 3152 3152 3152 3152 3152 3152 3152 3153 3153 3153 3152 3152 3152
3097 3098 3099 3101 3102 3104 3105 3106 3107 3107 3108 3110 3110 3111 3112 3113 3114 3114 3114 3115 3115 3116 3116 3116 3116 3116 3117 3119 3119 3120 3121 3122 3123 3124 3124 3125 3125 3125 3126 3126 3127 3128 3129 3129 3130 3130 3131 3131 3132 3132 3133 3133 3134 3134 3135 3135 3136 3136 3137 3137 3138 3139 3139 3140 3140 3141 3142 3142 3143 3144 3144 3145 3145 3145 3146 3146 3147 3147 3147 3148 3149 3149 3149 3149 3150 3150 3150 3150 3150 3151 3151 3151 3151 3151 3151 3152 3152 3152 3152 3152 3151 3151 3151
3095 3096 3097 3098 3099 3100 3102 3103 3104 3105 3105 3107 3108 3109 3110 3111 3112 3113 3113 3113 3114 3114 3114 3114 3115 3115 3115 3116 3117 3118 3119 3120 3121 3122 3123 3123 3124 3124 3124 3125 3125 3126 3127 3128 3128 3129 3130 3130 3130 3131 3131 3132 3133 3133 3134 3134 3135 3135 3135 3136 3137 3137 3138 3138 3139 3140 3140 3141 3142 3142 3143 3143 3144 3144 3145 3145 3145 3146 3146 3146 3147 3148 3148 3149 3149 3149 3150 3150 3150 3150 3150 3150 3150 3150 3150 3151 3151 3151 3151 3151 3151 3150 3151
3093 3094 3095 3096 3097 3098 3099 3101 3102 3103 3103 3104 3105 3106 3106 3108 3109 3110 3110 3111 3112 3112 3112 3113 3113 3113 3114 3114 3115 3115 3117 3118 3119 3120 3121 3121 3122 3122 3122 3123 3124 3125 3125 3126 3126 3127 3128 3128 3129 3129 3130 3130 3131 3132 3132 3133 3133 3134 3134 3135 3135 3136 3136 3137 3138 3138 3139 3140 3140 3141 3142 3142 3143 3143 3144 3144 3144 3145 3145 3145 3146 3146 3147 3148 3148 3148 3148 3149 3149 3149 3149 3149 3149 3150 3150 3150 3150 3150 3150 3150 3150 3150 3150
3091 3092 3093 3093 3094 3095 3096 3098 3100 3101 3101 3101 3102 3103 3103 3104 3105 3107 3107 3108 3109 3110 3110 3110 3110 3111 3111 3112 3113 3114 3115 3116 3117 3118 3119 3120 3120 3120 3120 3121 3122 3122 3123 3124 3125 3125 3126 3127 3127 3128 3128 3129 3130 3130 3131 3131 3132 3132 3133 3133 3134 3134 3135 3136 3136 3137 3138 3138 3139 3140 3140 3141 3141 3142 3142 3143 3143 3144 3144 3144 3145 3145 3145 3146 3147 3147 3147 3147 3148 3148 3148 3148 3149 3149 3149 3149 3149 3149 3149 3149 3149 3149 3149
3090 3090 3090 3090 3092 3093 3093 3095 3097 3099 3099 3098 3099 3100 3101 3101 3102 3104 3105 3105 3106 3107 3108 3108 3108 3109 3109 3110 3111 3112 3112 3114 3115 3115 3116 3117 3118 3118 3119 3119 3120 3120 3121 3122 3123 3124 3124 3125 3125 3126 3126 3127 3128 3129 3129 3130 3130 3131 3131 3132 3132 3133 3134 3134 3135 3136 3136 3137 3137 3138 3139 3140 3140 3140 3141 3141 3142 3142 3143 3143 3144 3144 3145 3145 3145 3145 3146 3146 3147 3147 3147 3147 3148 3148 3148 3148 3148 3148 3148 3148 3148 3148 3148
3087 3087 3086 3087 3088 3090 3091 3092 3093 3095 3096 3095 3096 3097 3098 3099 3100 3101 3102 3103 3103 3104 3105 3106 3106 3106 3107 3107 3109 3110 3110 3111 3112 3113 3114 3115 3115 3116 3116 3117 3117 3118 3119 3120 3121 3122 3122 3123 3123 3124 3125 3125 3126 3127 3128 3128 3129 3129 3130 3130 3131 3131 3132 3133 3134 3134 3135 3135 3136 3137 3137 3138 3139 3139 3140 3140 3140 3141 3142 3142 3142 3143 3143 3144 3144 3144 3145 3145 3145 3146 3146 3146 3147 3147 3147 3147 3147 3147 3147 3147 3147 3147 3147
3083 3083 3082 3083 3085 3087 3089 3090 3090 3091 3092 3093 3093 3094 3095 3096 3097 3098 3099 3100 3101 3102 3103 3103 3103 3104 3104 3105 3106 3107 3108 3109 3110 3110 3111 3112 3113 3114 3114 3114 3115 3115 3116 3118 3119 3120 3120 3121 3121 3122 3123 3124 3125 3125 3126 3126 3127 3127 3128 3129 3130 3130 3131 3131 3132 3133 3133 3134 3135 3135 3136 3136 3137 3138 3138 3139 3139 3140 3140 3140 3141 3141 3142 3142 3143 3143 3144 3144 3144 3145 3145 3145 3145 3146 3146 3146 3146 3146 3146 3146 3146 3146 3146
3080 3080 3079 3080 3082 3084 3086 3087 3088 3088 3089 3089 3090 3092 3093 3095 3095 3096 3097 3098 3098 3099 3100 3100 3100 3101 3101 3102 3104 3105 3106 3107 3107 3107 3107 3107 3109 3111 3112 3112 3112 3113 3114 3115 3116 3117 3118 3119 3119 3120 3121 3122 3123 3124 3124 3125 3125 3126 3127 3127 3128 3129 3129 3130 3130 3131 3132 3132 3133 3134 3135 3135 3135 3136 3136 3137 3138 3138 3139 3139 3140 3140 3140 3141 3141 3142 3142 3142 3143 3143 3144 3144 3144 3145 3145 3145 3145 3145 3145 3145 3145 3145 3145
3077 3078 3078 3078 3079 3081 3083 3085 3085 3085 3085 3086 3088 3090 3091 3092 3093 3094 3096 3097 3096 3096 3097 3097 3097 3098 3099 3100 3101 3103 3104 3105 3105 3104 3104 3104 3105 3107 3109 3110 3110 3110 3111 3112 3114 3115 3115 3116 3117 3118 3119 3120 3121 3122 3122 3123 3123 3124 3125 3126 3126 3127 3128 3128 3129 3130 3130 3131 3131 3132 3133 3133 3134 3134 3135 3135 3136 3137 3137 3138 3138 3139 3139 3140 3140 3140 3141 3141 3141 3142 3142 3143 3143 3143 3143 3144 3144 3144 3144 3144 3144 3144 3144
3073 3075 3077 3077 3078 3079 3080 3081 3082 3082 3082 3084 3086 3087 3088 3089 3090 3091 3093 3095 3095 3094 3094 3094 3094 3095 3096 3098 3099 3100 3101 3102 3102 3101 3102 3102 3103 3104 3106 3108 3108 3109 3109 3110 3111 3112 3113 3114 3115 3115 3116 3118 3119 3120 3120 3121 3122 3122 3123 3124 3125 3126 3126 3127 3127 3128 3128 3129 3130 3130 3131 3132 3132 3133 3133 3134 3135 3135 3135 3136 3137 3137 3138 3138 3138 3139 3139 3140 3140 3140 3141 3141 3141 3142 3142 3142 3142 3143 3143 3143 3143 3143 3143
3070 3071 3073 3075 3076 3077 3078 3078 3080 3080 3082 3083 3085 3086 3086 3087 3087 3088 3090 3091 3092 3092 3091 3091 3091 3093 3094 3095 3096 3097 3098 3099 3099 3099 3100 3101 3102 3102 3103 3105 3106 3106 3106 3107 3108 3109 3110 3111 3112 3113 3114 3115 3117 3118 3118 3119 3120 3120 3122 3122 3123 3124 3125 3125 3125 3126 3126 3127 3128 3129 3130 3130 3130 3131 3132 3132 3133 3134 3134 3135 3135 3135 3136 3136 3137 3137 3138 3138 3139 3139 3139 3140 3140 3140 3140 3140 3141 3141 3141 3141 3141 3141 3141
3066 3068 3070 3072 3073 3075 3076 3076 3077 3079 3080 3081 3082 3083 3085 3085 3086 3086 3087 3087 3088 3089 3088 3087 3089 3090 3091 3093 3094 3095 3095 3096 3096 3097 3099 3099 3100 3100 3100 3102 3103 3103 3104 3105 3106 3106 3107 3108 3109 3110 3112 3113 3115 3115 3116 3117 3118 3119 3120 3121 3122 3122 3123 3123 3124 3124 3125 3125 3126 3127 3128 3128 3129 3130 3130 3131 3131 3132 3132 3133 3133 3134 3134 3135 3135 3135 3136 3136 3137 3137 3137 3138 3138 3138 3138 3139 3139 3139 3140 3140 3140 3140 3140
3062 3064 3066 3068 3070 3072 3073 3074 3075 3076 3077 3079 3080 3080 3081 3082 3083 3084 3085 3084 3085 3086 3086 3085 3085 3087 3088 3090 3091 3092 3093 3094 3095 3095 3096 3096 3096 3096 3097 3099 3100 3101 3103 3104 3104 3104 3104 3106 3107 3109 3110 3111 3113 3114 3114 3115 3116 3117 3118 3119 3120 3121 3121 3122 3122 3122 3123 3124 3125 3125 3126 3126 3127 3128 3128 3129 3130 3130 3130 3131 3131 3132 3132 3133 3133 3134 3134 3135 3135 3135 3136 3136 3136 3136 3136 3137 3137 3137 3138 3138 3138 3138 3138
3059 3061 3063 3065 3067 3069 3070 3071 3073 3074 3075 3076 3077 3078 3079 3080 3080 3081 3082 3082 3082 3084 3085 3083 3082 3083 3085 3087 3089 3090 3091 3092 3092 3093 3094 3094 3094 3094 3095 3097 3099 3101 3101 3101 3101 3101 3102 3104 3106 3107 3108 3110 3110 3111 3112 3113 3114 3115 3116 3117 3118 3119 3120 3120 3120 3121 3121 3122 3123 3124 3124 3125 3125 3126 3127 3127 3128 3128 3129 3129 3130 3130 3130 3130 3131 3131 3132 3133 3133 3134 3134 3134 3134 3135 3135 3135 3135 3136 3136 3136 3136 3136 3136
3056 3058 3060 3062 3064 3065 3067 3069 3070 3071 3072 3073 3074 3075 3076 3077 3078 3079 3080 3080 3080 3081 3084 3082 3080 3080 3082 3084 3086 3088 3089 3090 3090 3091 3091 3092 3092 3092 3093 3095 3097 3098 3099 3099 3099 3100 3101 3102 3104 3105 3105 3107 3108 3109 3110 3110 3112 3113 3114 3115 3116 3117 3117 3118 3118 3119 3120 3120 3121 3122 3122 3123 3123 3124 3125 3125 3126 3126 3127 3127 3127 3128 3128 3128 3129 3129 3130 3130 3131 3132 3132 3132 3132 3133 3133 3133 3134 3134 3134 3135 3135 3135 3135
3054 3055 3056 3058 3060 3062 3064 3065 3067 3068 3069 3070 3071 3072 3074 3075 3076 3077 3077 3078 3078 3079 3081 3081 3079 3077 3079 3081 3084 3085 3087 3087 3087 3088 3090 3090 3091 3091 3091 3091 3093 3095 3096 3097 3098 3099 3100 3100 3101 3102 3102 3104 3105 3106 3108 3109 3110 3110 3112 3113 3114 3115 3115 3115 3116 3117 3118 3119 3119 3120 3120 3120 3121 3122 3122 3123 3124 3124 3125 3125 3125 3125 3126 3126 3126 3127 3127 3128 3129 3130 3130 3130 3130 3131 3131 3131 3132 3132 3132 3133 3133 3133 3133
3051 3052 3053 3055 3056 3059 3060 3062 3064 3065 3066 3068 3069 3070 3071 3072 3073 3074 3075 3076 3077 3077 3078 3078 3077 3076 3077 3079 3081 3083 3084 3085 3085 3086 3087 3088 3089 3090 3090 3090 3090 3092 3094 3096 3097 3098 3098 3098 3098 3099 3100 3101 3103 3104 3105 3106 3107 3108 3109 3110 3111 3112 3113 3113 3114 3115 3115 3116 3117 3118 3118 3119 3119 3120 3120 3121 3121 3122 3122 3123 3123 3123 3124 3124 3124 3125 3125 3126 3127 3127 3128 3128 3128 3129 3129 3130 3130 3130 3130 3131 3131 3131 3131
3048 3049 3050 3052 3053 3055 3057 3058 3060 3062 3063 3065 3066 3067 3068 3069 3070 3071 3072 3074 3075 3075 3075 3075 3075 3075 3075 3076 3078 3079 3080 3081 3082 3084 3085 3086 3087 3088 3089 3090 3090 3090 3091 3092 3094 3095 3095 3095 3095 3096 3099 3099 3099 3101 3103 3104 3105 3105 3106 3108 3109 3110 3110 3111 3111 3112 3113 3114 3115 3115 3116 3116 3117 3117 3118 3118 3119 3119 3120 3120 3120 3121 3121 3122 3122 3122 3123 3124 3124 3125 3125 3126 3126 3127 3127 3128 3128 3128 3128 3129 3129 3129 3130
3044 3046 3047 3049 3050 3052 3053 3055 3056 3058 3060 3061 3062 3064 3065 3066 3067 3069 3070 3071 3072 3073 3073 3073 3074 3074 3073 3074 3075 3076 3078 3079 3080 3081 3082 3083 3085 3086 3088 3088 3089 3089 3089 3090 3090 3091 3092 3092 3093 3094 3096 3096 3096 3098 3100 3101 3103 3103 3104 3105 3107 3108 3108 3109 3109 3110 3110 3111 3112 3113 3114 3114 3115 3115 3115 3116 3116 3117 3117 3118 3118 3119 3119 3119 3120 3120 3120 3121 3122 3123 3123 3124 3124 3125 3125 3126 3126 3126 3126 3127 3127 3127 3128
3041 3043 3044 3046 3048 3049 3050 3052 3053 3055 3056 3058 3059 3060 3062 3063 3065 3066 3067 3068 3069 3070 3070 3071 3072 3072 3071 3072 3073 3074 3075 3078 3079 3079 3079 3080 3082 3084 3085 3086 3087 3088 3089 3088 3087 3088 3089 3089 3090 3091 3092 3093 3094 3095 3097 3099 3101 3102 3102 3103 3104 3105 3105 3106 3107 3107 3108 3109 3110 3110 3111 3111 3112 3112 3113 3113 3114 3114 3115 3115 3116 3116 3117 3117 3117 3118 3118 3119 3119 3120 3121 3122 3122 3123 3124 3124 3124 3124 3124 3125 3125 3125 3125